星链-1982 (STARLINK-1982 )

导读 | 豆包AI

STARLINK-1982是美国SpaceX星链星座中的一员,属于Starlink V1.0卫星,于2021年2月4日发射升空,由SpaceX自主制造运营,部署于近地轨道,轨道近地点约546千米、远地点约548千米,轨道倾角53.054度,运行周期约95.6分钟,承担全球高速卫星互联网接入服务,为偏远地区提供宽带连接,目前仍在轨正常工作,是星链巨型星座组网建设的重要组成部分。

Basic Information
目录编号:
47580
目录名称:
STARLINK-1982
国际标识:
2021-009AJ
轨道中心:
EARTH
卫星名称:
星链-1982
卫星全名:
星链-1982 (STARLINK-1982 )
卫星状态:
已陨落 最后检测时间 2025-06-28
发射日期:
2021-02-04 UTC
国别 :
美国 (US)
星等 :
--
Orbit Information
数据来源 国际轨道数据
星历时间: 2025-06-29T02:19:22+0800
轨道信息已过期305天
半长轴: 6525.946km
偏心率: 0.0012403
轨道倾角: 53.019°
近地点辐角 272.737°
升交点赤经 29.911°
平近点角 171.353°
近地点: 139.716km
远地点: 155.906km
周期: 87.443分钟
每日圈数: 16.467875
Detailed Information
固有亮度:
5
最大亮度:
2.5
卫星平台:
Starlink V1.0
覆盖范围:
全球
运营商:
太空探索技术公司
运营商所在国:
美国
制造商(研发单位):
太空探索技术公司
制造商所在国:
美国
使用方式:
暂无
Satellite Introduction
星链(Starlink)计划是由太空探索技术公司(SpaceX)提出的一个巨型低轨卫星互联网星座项目,计划在2019年至2024年间在太空搭建由约1.2万颗卫星组成的“星链”网络,其中1584颗将部署在地球上空550千米处的近地轨道,并从2020年开始工作。该卫星仍在工作。